| time (UTC) | temp F | wind direction | speed MPH | gust MPH | rain 1hr in | rain 24hr in | rain mn in | humidity % | barometer mb |
| 20260505011057 | 56 | 192 | 0.0 | 2.0 | 0.00 | 0.00 | 0.00 | 73 | 1009.9 |
| 20260505010555 | 56 | 182 | 0.0 | 3.0 | 0.00 | 0.00 | 0.00 | 72 | 1009.9 |
| 20260505005554 | 56 | 213 | 0.0 | 3.0 | 0.00 | 0.00 | 0.00 | 71 | 1009.6 |
| 20260505005054 | 57 | 202 | 1.0 | 4.0 | 0.00 | 0.00 | 0.00 | 70 | 1009.4 |
| 20260505004554 | 57 | 185 | 1.0 | 4.0 | 0.00 | 0.00 | 0.00 | 70 | 1009.3 |
| 20260505004053 | 57 | 196 | 0.0 | 2.0 | 0.00 | 0.00 | 0.00 | 69 | 1009.2 |
| 20260505003557 | 57 | 202 | 0.0 | 3.0 | 0.00 | 0.00 | 0.00 | 69 | 1009.2 |
| 20260505003057 | 57 | 219 | 1.0 | 5.0 | 0.00 | 0.00 | 0.00 | 68 | 1009.1 |
| 20260505002555 | 57 | 185 | 1.0 | 5.0 | 0.00 | 0.00 | 0.00 | 68 | 1009.0 |
| 20260505002052 | 57 | 199 | 1.0 | 4.0 | 0.00 | 0.00 | 0.00 | 67 | 1008.9 |
| 20260505001553 | 58 | 204 | 1.0 | 3.0 | 0.00 | 0.00 | 0.00 | 67 | 1008.8 |
| 20260505001053 | 58 | 217 | 0.0 | 4.0 | 0.00 | 0.00 | 0.00 | 66 | 1008.8 |
| 20260505000552 | 58 | 184 | 0.0 | 8.0 | 0.00 | 0.00 | 0.00 | 65 | 1008.6 |
| 20260505000100 | 58 | 190 | 2.0 | 8.0 | 0.00 | 0.00 | 0.00 | 64 | 1008.6 |
| 20260504235551 | 59 | 189 | 0.0 | 4.0 | 0.00 | 0.00 | 0.00 | 63 | 1008.5 |
| 20260504235052 | 59 | 185 | 1.0 | 6.0 | 0.00 | 0.00 | 0.00 | 62 | 1008.3 |
| 20260504234551 | 59 | 228 | 1.0 | 6.0 | 0.00 | 0.00 | 0.00 | 60 | 1008.3 |
| 20260504234052 | 60 | 180 | 1.0 | 6.0 | 0.00 | 0.00 | 0.00 | 60 | 1008.3 |
| 20260504233550 | 60 | 209 | 1.0 | 6.0 | 0.00 | 0.00 | 0.00 | 59 | 1008.2 |
| 20260504233053 | 60 | 178 | 2.0 | 5.0 | 0.00 | 0.00 | 0.00 | 58 | 1008.2 |
| 20260504232550 | 61 | 177 | 1.0 | 7.0 | 0.00 | 0.00 | 0.00 | 56 | 1008.2 |
| 20260504232052 | 61 | 212 | 2.0 | 7.0 | 0.00 | 0.00 | 0.00 | 55 | 1008.1 |
| 20260504231549 | 61 | 199 | 2.0 | 7.0 | 0.00 | 0.00 | 0.00 | 55 | 1008.0 |
| 20260504231049 | 62 | 195 | 2.0 | 7.0 | 0.00 | 0.00 | 0.00 | 55 | 1008.0 |
| 20260504230551 | 62 | 177 | 1.0 | 10.0 | 0.00 | 0.00 | 0.00 | 55 | 1007.7 |
| 20260504230049 | 62 | 185 | 2.0 | 10.0 | 0.00 | 0.00 | 0.00 | 54 | 1007.7 |
| 20260504225548 | 63 | 214 | 2.0 | 7.0 | 0.00 | 0.00 | 0.00 | 53 | 1007.7 |
| 20260504225050 | 63 | 210 | 1.0 | 6.0 | 0.00 | 0.00 | 0.00 | 52 | 1007.7 |
| 20260504224549 | 63 | 180 | 3.0 | 6.0 | 0.00 | 0.00 | 0.00 | 51 | 1007.6 |
| 20260504224050 | 63 | 199 | 2.0 | 7.0 | 0.00 | 0.00 | 0.00 | 51 | 1007.6 |
| 20260504223548 | 64 | 181 | 2.0 | 10.0 | 0.00 | 0.00 | 0.00 | 51 | 1007.6 |
| 20260504223047 | 64 | 186 | 3.0 | 10.0 | 0.00 | 0.00 | 0.00 | 49 | 1007.6 |
| 20260504222547 | 65 | 181 | 3.0 | 7.0 | 0.00 | 0.00 | 0.00 | 48 | 1007.5 |
| 20260504222046 | 65 | 186 | 3.0 | 8.0 | 0.00 | 0.00 | 0.00 | 46 | 1007.4 |
| 20260504221546 | 65 | 169 | 3.0 | 9.0 | 0.00 | 0.00 | 0.00 | 47 | 1007.3 |
| 20260504221048 | 66 | 205 | 3.0 | 9.0 | 0.00 | 0.00 | 0.00 | 46 | 1007.3 |
| 20260504220546 | 66 | 214 | 3.0 | 9.0 | 0.00 | 0.00 | 0.00 | 46 | 1007.3 |
| 20260504220108 | 67 | 194 | 2.0 | 9.0 | 0.00 | 0.00 | 0.00 | 46 | 1007.3 |
| 20260504215546 | 67 | 192 | 2.0 | 9.0 | 0.00 | 0.00 | 0.00 | 46 | 1007.2 |
| 20260504215145 | 67 | 204 | 3.0 | 9.0 | 0.00 | 0.00 | 0.00 | 45 | 1007.2 |
| 20260504214552 | 67 | 205 | 4.0 | 8.0 | 0.00 | 0.00 | 0.00 | 45 | 1007.4 |
| 20260504214044 | 67 | 182 | 3.0 | 10.0 | 0.00 | 0.00 | 0.00 | 45 | 1007.3 |
| 20260504213545 | 67 | 209 | 3.0 | 10.0 | 0.00 | 0.00 | 0.00 | 45 | 1007.2 |
| 20260504213051 | 67 | 195 | 2.0 | 10.0 | 0.00 | 0.00 | 0.00 | 45 | 1007.2 |
| 20260504212544 | 67 | 197 | 3.0 | 10.0 | 0.00 | 0.00 | 0.00 | 46 | 1007.2 |
| 20260504212045 | 67 | 189 | 3.0 | 10.0 | 0.00 | 0.00 | 0.00 | 45 | 1007.3 |
| 20260504211544 | 67 | 202 | 3.0 | 10.0 | 0.00 | 0.00 | 0.00 | 44 | 1007.2 |
| 20260504211043 | 68 | 198 | 3.0 | 10.0 | 0.00 | 0.00 | 0.00 | 44 | 1007.2 |
| 20260504210543 | 68 | 203 | 3.0 | 9.0 | 0.00 | 0.00 | 0.00 | 45 | 1007.2 |
| 20260504210043 | 68 | 178 | 3.0 | 11.0 | 0.00 | 0.00 | 0.00 | 44 | 1007.2 |
| 20260504205543 | 69 | 211 | 3.0 | 11.0 | 0.00 | 0.00 | 0.00 | 43 | 1007.2 |
| 20260504205044 | 69 | 185 | 4.0 | 11.0 | 0.00 | 0.00 | 0.00 | 43 | 1007.2 |
| 20260504204543 | 70 | 171 | 2.0 | 7.0 | 0.00 | 0.00 | 0.00 | 43 | 1007.1 |
| 20260504204042 | 71 | 185 | 2.0 | 8.0 | 0.00 | 0.00 | 0.00 | 41 | 1007.1 |
| 20260504203542 | 71 | 193 | 2.0 | 8.0 | 0.00 | 0.00 | 0.00 | 41 | 1007.1 |
| 20260504203042 | 71 | 192 | 3.0 | 11.0 | 0.00 | 0.00 | 0.00 | 40 | 1007.0 |
| 20260504202542 | 71 | 189 | 4.0 | 11.0 | 0.00 | 0.00 | 0.00 | 41 | 1007.0 |
| 20260504202042 | 71 | 209 | 3.0 | 10.0 | 0.00 | 0.00 | 0.00 | 39 | 1007.1 |
| 20260504201541 | 71 | 229 | 2.0 | 8.0 | 0.00 | 0.00 | 0.00 | 40 | 1007.0 |
| 20260504201045 | 71 | 100 | 2.0 | 9.0 | 0.00 | 0.00 | 0.00 | 40 | 1006.9 |
| 20260504200541 | 71 | 166 | 3.0 | 9.0 | 0.00 | 0.00 | 0.00 | 39 | 1007.0 |
| 20260504200048 | 71 | 171 | 3.0 | 14.0 | 0.00 | 0.00 | 0.00 | 39 | 1007.0 |
| 20260504195540 | 71 | 169 | 4.0 | 14.0 | 0.00 | 0.00 | 0.00 | 38 | 1007.2 |
| 20260504195039 | 71 | 179 | 4.0 | 11.0 | 0.00 | 0.00 | 0.00 | 38 | 1007.1 |
| 20260504194542 | 71 | 157 | 4.0 | 10.0 | 0.00 | 0.00 | 0.00 | 39 | 1007.0 |
| 20260504194039 | 71 | 188 | 3.0 | 9.0 | 0.00 | 0.00 | 0.00 | 39 | 1007.0 |
| 20260504193539 | 71 | 193 | 4.0 | 10.0 | 0.00 | 0.00 | 0.00 | 38 | 1007.1 |
| 20260504193038 | 71 | 225 | 3.0 | 10.0 | 0.00 | 0.00 | 0.00 | 38 | 1007.0 |
| 20260504192537 | 71 | 209 | 5.0 | 9.0 | 0.00 | 0.00 | 0.00 | 37 | 1007.1 |
| 20260504192037 | 71 | 165 | 3.0 | 10.0 | 0.00 | 0.00 | 0.00 | 39 | 1007.1 |
| 20260504191550 | 71 | 167 | 4.0 | 10.0 | 0.00 | 0.00 | 0.00 | 36 | 1007.0 |
| 20260504191038 | 71 | 206 | 5.0 | 11.0 | 0.00 | 0.00 | 0.00 | 36 | 1007.1 |
| 20260504190539 | 71 | 169 | 4.0 | 14.0 | 0.00 | 0.00 | 0.00 | 36 | 1007.0 |
| 20260504190043 | 71 | 213 | 5.0 | 14.0 | 0.00 | 0.00 | 0.00 | 35 | 1007.2 |
| 20260504185535 | 72 | 161 | 3.0 | 9.0 | 0.00 | 0.00 | 0.00 | 35 | 1007.2 |
| 20260504185034 | 71 | 197 | 3.0 | 9.0 | 0.00 | 0.00 | 0.00 | 36 | 1007.3 |
| 20260504184545 | 72 | 164 | 4.0 | 9.0 | 0.00 | 0.00 | 0.00 | 36 | 1007.3 |
| 20260504184034 | 72 | 209 | 3.0 | 9.0 | 0.00 | 0.00 | 0.00 | 34 | 1007.3 |
| 20260504183533 | 72 | 272 | 3.0 | 10.0 | 0.00 | 0.00 | 0.00 | 33 | 1007.5 |
| 20260504183041 | 72 | 171 | 3.0 | 11.0 | 0.00 | 0.00 | 0.00 | 34 | 1007.4 |
| 20260504182533 | 71 | 154 | 4.0 | 11.0 | 0.00 | 0.00 | 0.00 | 32 | 1007.4 |
| 20260504182033 | 71 | 228 | 2.0 | 11.0 | 0.00 | 0.00 | 0.00 | 35 | 1007.6 |
| 20260504181531 | 71 | 189 | 4.0 | 10.0 | 0.00 | 0.00 | 0.00 | 33 | 1007.6 |
| 20260504181031 | 71 | 242 | 4.0 | 11.0 | 0.00 | 0.00 | 0.00 | 33 | 1007.7 |
| 20260504180532 | 71 | 332 | 5.0 | 11.0 | 0.00 | 0.00 | 0.00 | 34 | 1007.8 |
| 20260504180030 | 71 | 184 | 2.0 | 11.0 | 0.00 | 0.00 | 0.00 | 35 | 1007.8 |
| 20260504175529 | 71 | 195 | 5.0 | 13.0 | 0.00 | 0.00 | 0.00 | 32 | 1007.8 |
| 20260504175032 | 71 | 171 | 4.0 | 13.0 | 0.00 | 0.00 | 0.00 | 32 | 1007.7 |
| 20260504174530 | 71 | 180 | 2.0 | 10.0 | 0.00 | 0.00 | 0.00 | 34 | 1007.6 |
| 20260504174028 | 71 | 187 | 2.0 | 10.0 | 0.00 | 0.00 | 0.00 | 34 | 1007.8 |
| 20260504173527 | 70 | 179 | 4.0 | 11.0 | 0.00 | 0.00 | 0.00 | 35 | 1007.8 |
| 20260504173029 | 70 | 150 | 3.0 | 11.0 | 0.00 | 0.00 | 0.00 | 32 | 1007.7 |
| 20260504172526 | 70 | 3 | 3.0 | 12.0 | 0.00 | 0.00 | 0.00 | 33 | 1007.7 |
| 20260504172027 | 70 | 196 | 6.0 | 12.0 | 0.00 | 0.00 | 0.00 | 33 | 1007.8 |
| 20260504171525 | 70 | 221 | 3.0 | 8.0 | 0.00 | 0.00 | 0.00 | 34 | 1007.8 |
| 20260504171025 | 70 | 170 | 3.0 | 8.0 | 0.00 | 0.00 | 0.00 | 33 | 1007.9 |
| 20260504170525 | 70 | 197 | 4.0 | 11.0 | 0.00 | 0.00 | 0.00 | 34 | 1007.8 |
| 20260504151006 | 66 | 188 | 2.0 | 7.0 | 0.00 | 0.00 | 0.00 | 39 | 1009.1 |
| 20260504150509 | 66 | 218 | 1.0 | 11.0 | 0.00 | 0.00 | 0.00 | 42 | 1009.1 |
| 20260504141055 | 63 | 113 | 1.0 | 5.0 | 0.00 | 0.00 | 0.00 | 43 | 1009.9 |
| 20260504140555 | 63 | 240 | 1.0 | 6.0 | 0.00 | 0.00 | 0.00 | 43 | 1009.8 |
| 20260504130542 | 59 | 179 | 0.0 | 5.0 | 0.00 | 0.00 | 0.00 | 49 | 1010.1 |
| 20260504110513 | 49 | 12 | 0.0 | 1.0 | 0.00 | 0.00 | 0.00 | 65 | 1010.3 |
| 20260504100503 | 42 | 163 | 0.0 | 0.0 | 0.00 | 0.00 | 0.00 | 75 | 1010.2 |
| 20260504081557 | 46 | 163 | 0.0 | 0.0 | 0.00 | 0.00 | 0.00 | 66 | 1009.7 |
| 20260504081059 | 46 | 163 | 0.0 | 0.0 | 0.00 | 0.00 | 0.00 | 65 | 1009.9 |
| 20260504080554 | 45 | 164 | 0.0 | 0.0 | 0.00 | 0.00 | 0.00 | 66 | 1009.8 |
| 20260504050523 | 40 | 159 | 0.0 | 0.0 | 0.00 | 0.00 | 0.00 | 71 | 1009.7 |
| 20260504050022 | 40 | 159 | 0.0 | 0.0 | 0.00 | 0.00 | 0.00 | 72 | 1009.7 |
| 20260504045521 | 40 | 159 | 0.0 | 0.0 | 0.00 | 0.00 | 0.00 | 73 | 1009.7 |
| 20260504045026 | 40 | 159 | 0.0 | 0.0 | 0.00 | 0.00 | 0.00 | 73 | 1009.8 |
| 20260504044525 | 40 | 159 | 0.0 | 0.0 | 0.00 | 0.00 | 0.00 | 73 | 1009.8 |
| 20260504044018 | 40 | 159 | 0.0 | 0.0 | 0.00 | 0.00 | 0.00 | 73 | 1009.8 |
| 20260504043517 | 40 | 159 | 0.0 | 0.0 | 0.00 | 0.00 | 0.00 | 72 | 1009.8 |
| 20260504043016 | 40 | 159 | 0.0 | 0.0 | 0.00 | 0.00 | 0.00 | 73 | 1009.8 |
| 20260504042515 | 40 | 159 | 0.0 | 0.0 | 0.00 | 0.00 | 0.00 | 74 | 1009.7 |
| 20260504042014 | 40 | 159 | 0.0 | 0.0 | 0.00 | 0.00 | 0.00 | 75 | 1009.6 |
| 20260504041511 | 40 | 159 | 0.0 | 0.0 | 0.00 | 0.00 | 0.00 | 75 | 1009.5 |
| 20260504041011 | 40 | 159 | 0.0 | 0.0 | 0.00 | 0.00 | 0.00 | 75 | 1009.5 |
| 20260504040509 | 40 | 159 | 0.0 | 0.0 | 0.00 | 0.00 | 0.00 | 74 | 1009.5 |
| 20260504040008 | 41 | 159 | 0.0 | 0.0 | 0.00 | 0.00 | 0.00 | 74 | 1009.6 |
| 20260504035507 | 41 | 159 | 0.0 | 0.0 | 0.00 | 0.00 | 0.00 | 73 | 1009.5 |
| 20260504035006 | 41 | 159 | 0.0 | 0.0 | 0.00 | 0.00 | 0.00 | 72 | 1009.4 |
| 20260504034505 | 41 | 159 | 0.0 | 0.0 | 0.00 | 0.00 | 0.00 | 71 | 1009.4 |
| 20260504034004 | 41 | 159 | 0.0 | 0.0 | 0.00 | 0.00 | 0.00 | 71 | 1009.3 |
| 20260504033504 | 41 | 159 | 0.0 | 0.0 | 0.00 | 0.00 | 0.00 | 70 | 1009.3 |
| 20260504033003 | 41 | 159 | 0.0 | 0.0 | 0.00 | 0.00 | 0.00 | 71 | 1009.2 |
| 20260504032503 | 41 | 159 | 0.0 | 0.0 | 0.00 | 0.00 | 0.00 | 71 | 1009.2 |
| 20260504032001 | 41 | 159 | 0.0 | 0.0 | 0.00 | 0.00 | 0.00 | 70 | 1009.2 |
| 20260504031604 | 41 | 159 | 0.0 | 0.0 | 0.00 | 0.00 | 0.00 | 70 | 1009.2 |
| 20260504031059 | 42 | 159 | 0.0 | 0.0 | 0.00 | 0.00 | 0.00 | 70 | 1009.1 |
| 20260504030559 | 42 | 159 | 0.0 | 0.0 | 0.00 | 0.00 | 0.00 | 68 | 1009.1 |
| 20260504030104 | 42 | 159 | 0.0 | 0.0 | 0.00 | 0.00 | 0.00 | 69 | 1009.1 |
| 20260504025558 | 42 | 159 | 0.0 | 0.0 | 0.00 | 0.00 | 0.00 | 70 | 1009.0 |
| 20260504025057 | 42 | 159 | 0.0 | 0.0 | 0.00 | 0.00 | 0.00 | 71 | 1009.1 |
| 20260504024556 | 42 | 159 | 0.0 | 0.0 | 0.00 | 0.00 | 0.00 | 71 | 1009.0 |
| 20260504024102 | 42 | 159 | 0.0 | 0.0 | 0.00 | 0.00 | 0.00 | 70 | 1009.0 |
| 20260504023556 | 42 | 159 | 0.0 | 0.0 | 0.00 | 0.00 | 0.00 | 71 | 1009.0 |
| 20260504023103 | 43 | 159 | 0.0 | 0.0 | 0.00 | 0.00 | 0.00 | 71 | 1009.0 |
| 20260504022558 | 42 | 159 | 0.0 | 0.0 | 0.00 | 0.00 | 0.00 | 71 | 1009.0 |
| 20260504022054 | 42 | 159 | 0.0 | 0.0 | 0.00 | 0.00 | 0.00 | 70 | 1009.0 |
| 20260504021554 | 43 | 159 | 0.0 | 0.0 | 0.00 | 0.00 | 0.00 | 69 | 1009.0 |
| 20260504021053 | 43 | 159 | 0.0 | 0.0 | 0.00 | 0.00 | 0.00 | 68 | 1009.0 |
| 20260504020553 | 43 | 159 | 0.0 | 0.0 | 0.00 | 0.00 | 0.00 | 65 | 1009.0 |
| 20260504020058 | 43 | 159 | 0.0 | 0.0 | 0.00 | 0.00 | 0.00 | 65 | 1008.9 |
| 20260504015551 | 43 | 159 | 0.0 | 0.0 | 0.00 | 0.00 | 0.00 | 62 | 1009.0 |
| 20260504015050 | 44 | 159 | 0.0 | 0.0 | 0.00 | 0.00 | 0.00 | 61 | 1008.9 |
| 20260504014550 | 44 | 159 | 0.0 | 0.0 | 0.00 | 0.00 | 0.00 | 61 | 1008.9 |
| 20260504014047 | 44 | 159 | 0.0 | 0.0 | 0.00 | 0.00 | 0.00 | 62 | 1008.8 |
| 20260504013547 | 45 | 159 | 0.0 | 0.0 | 0.00 | 0.00 | 0.00 | 62 | 1008.8 |
| 20260504013054 | 45 | 159 | 0.0 | 0.0 | 0.00 | 0.00 | 0.00 | 61 | 1008.7 |
| 20260504012645 | 45 | 159 | 0.0 | 0.0 | 0.00 | 0.00 | 0.00 | 60 | 1008.6 |
| 20260504012046 | 46 | 159 | 0.0 | 0.0 | 0.00 | 0.00 | 0.00 | 58 | 1008.6 |
| 20260504011544 | 47 | 159 | 0.0 | 0.0 | 0.00 | 0.00 | 0.00 | 57 | 1008.5 |